Weather History for KFOD - May, 2014

Change the Weather History Date:

Saturday, May 10, 2014

  Actual Average Record
Temperature  
Mean Temperature 58 °F -  
Max Temperature 73 °F 71 °F 96 °F (2011)
Min Temperature 42 °F 46 °F 29 °F (1966)
Degree Days  
Heating Degree Days 8    
Growing Degree Days 8 (Base 50)    
Moisture  
Dew Point 46 °F    
Average Humidity 71    
Maximum Humidity 88    
Minimum Humidity 38    
Precipitation  
Precipitation 0.30 in - - ()
Sea Level Pressure  
Sea Level Pressure 29.81 in    
Wind  
Wind Speed 5 mph (ESE)    
Max Wind Speed 20 mph    
Max Gust Speed 31 mph    
Visibility 10 miles    
Events Thunderstorm    
Averages and records for this station are not official NWS values.
T = Trace of Precipitation, MM = Missing Value Source: NWS Daily Summary

Daily Weather History Graph

Daily Weather History Graph

Search for Another Location

Airport or City:

Trip Planner

Search our weather history database for the weather conditions in past years. The results will help you decide how hot, cold, wet, or windy it might be!

Date:

Astronomy

May. 10, 2014 Rise Set
Actual Time 6:00 AM CDT 8:26 PM CDT
Civil Twilight 5:28 AM CDT 8:58 PM CDT
Nautical Twilight 4:49 AM CDT 9:38 PM CDT
Astronomical Twilight 4:04 AM CDT 10:22 PM CDT
Moon 4:18 PM CDT (5/10) 3:39 AM CDT (5/10)
Length of Visible Light 15h 30m
Length of Day
14h 26m
Waxing Gibbous, 82% of the Moon is Illuminated
May 10
Waxing Gibbous
May 14
Full
May 21
Last Quarter
May 28
New
Jun 5
First Quarter

Hourly Weather History & Observations

Time (CDT) Temp. Windchill Dew Point Humidity Pressure Visibility Wind Dir Wind Speed Gust Speed Precip Events Conditions
12:15 AM 46.4 °F - 37.4 °F 71% 29.84 in 10.0 mi Calm Calm - N/A   Clear
12:35 AM 46.4 °F - 39.2 °F 76% 29.84 in 10.0 mi Calm Calm - N/A   Clear
12:55 AM 46.4 °F - 37.4 °F 71% 29.86 in 10.0 mi Calm Calm - N/A   Clear
1:15 AM 46.4 °F 45.2 °F 39.2 °F 76% 29.86 in 10.0 mi North 3.5 mph - N/A   Clear
1:35 AM 44.6 °F - 37.4 °F 76% 29.86 in 10.0 mi Calm Calm - N/A   Clear
1:55 AM 42.8 °F - 37.4 °F 81% 29.86 in 10.0 mi Calm Calm - N/A   Clear
2:15 AM 44.6 °F - 39.2 °F 81% 29.86 in 10.0 mi Calm Calm - N/A   Clear
2:35 AM 44.6 °F - 39.2 °F 81% 29.86 in 10.0 mi Calm Calm - N/A   Partly Cloudy
2:55 AM 44.6 °F - 39.2 °F 81% 29.86 in 10.0 mi Calm Calm - N/A   Scattered Clouds
3:15 AM 44.6 °F - 37.4 °F 76% 29.85 in 10.0 mi Calm Calm - N/A   Scattered Clouds
3:35 AM 42.8 °F - 37.4 °F 81% 29.85 in 10.0 mi Calm Calm - N/A   Mostly Cloudy
3:55 AM 42.8 °F - 37.4 °F 81% 29.85 in 10.0 mi Calm Calm - N/A   Mostly Cloudy
4:15 AM 42.8 °F 41.1 °F 37.4 °F 81% 29.86 in 10.0 mi East 3.5 mph - N/A   Partly Cloudy
4:35 AM 42.8 °F - 35.6 °F 76% 29.86 in 10.0 mi Calm Calm - N/A   Clear
4:55 AM 42.8 °F 40.1 °F 37.4 °F 81% 29.86 in 10.0 mi East 4.6 mph - N/A   Clear
5:15 AM 42.8 °F - 35.6 °F 76% 29.86 in 10.0 mi Calm Calm - N/A   Clear
5:35 AM 42.8 °F 40.1 °F 37.4 °F 81% 29.86 in 10.0 mi East 4.6 mph - N/A   Mostly Cloudy
5:55 AM 44.6 °F 43.1 °F 37.4 °F 76% 29.86 in 10.0 mi East 3.5 mph - N/A   Mostly Cloudy
6:15 AM 44.6 °F 42.2 °F 37.4 °F 76% 29.86 in 10.0 mi East 4.6 mph - N/A   Mostly Cloudy
6:35 AM 44.6 °F 42.2 °F 37.4 °F 76% 29.87 in 10.0 mi ESE 4.6 mph - N/A   Partly Cloudy
6:55 AM 44.6 °F 42.2 °F 39.2 °F 81% 29.87 in 10.0 mi ESE 4.6 mph - N/A   Clear
7:15 AM 46.4 °F 45.2 °F 41.0 °F 81% 29.87 in 10.0 mi ESE 3.5 mph - N/A   Clear
7:35 AM 48.2 °F - 42.8 °F 82% 29.86 in 10.0 mi East 5.8 mph - N/A   Clear
7:55 AM 51.8 °F - 42.8 °F 71% 29.87 in 10.0 mi SSE 3.5 mph - N/A   Mostly Cloudy
8:15 AM 53.6 °F - 42.8 °F 67% 29.87 in 10.0 mi SE 4.6 mph - N/A   Overcast
8:35 AM 55.4 °F - 42.8 °F 63% 29.88 in 10.0 mi SSW 4.6 mph - N/A   Overcast
8:55 AM 53.6 °F - 42.8 °F 67% 29.86 in 10.0 mi ESE 4.6 mph - N/A   Overcast
9:15 AM 53.6 °F - 46.4 °F 77% 29.87 in 10.0 mi SSE 5.8 mph - N/A   Overcast
9:35 AM 55.4 °F - 46.4 °F 72% 29.86 in 10.0 mi ESE 5.8 mph - N/A   Overcast
9:55 AM 55.4 °F - 46.4 °F 72% 29.84 in 10.0 mi ESE 9.2 mph - N/A   Overcast
10:15 AM 55.4 °F - 48.2 °F 77% 29.84 in 10.0 mi SE 8.1 mph - N/A   Mostly Cloudy
10:35 AM 60.8 °F - 50.0 °F 68% 29.85 in 10.0 mi SSE 8.1 mph - N/A   Mostly Cloudy
10:55 AM 60.8 °F - 48.2 °F 63% 29.87 in 10.0 mi SE 3.5 mph - N/A   Overcast
11:15 AM 60.8 °F - 50.0 °F 68% 29.87 in 9.0 mi ESE 6.9 mph - N/A   Overcast
11:35 AM 60.8 °F - 51.8 °F 72% 29.86 in 8.0 mi SE 8.1 mph - 0.01 in   Overcast
11:55 AM 57.2 °F - 51.8 °F 82% 29.83 in 9.0 mi SE 5.8 mph - 0.04 in   Mostly Cloudy
12:15 PM 60.8 °F - 53.6 °F 77% 29.84 in 10.0 mi SSE 9.2 mph - N/A   Mostly Cloudy
12:35 PM 62.6 °F - 51.8 °F 68% 29.84 in 10.0 mi SE 10.4 mph - N/A   Overcast
12:55 PM 62.6 °F - 51.8 °F 68% 29.81 in 10.0 mi ESE 11.5 mph - N/A   Overcast
1:15 PM 64.4 °F - 55.4 °F 73% 29.79 in 10.0 mi ESE 11.5 mph - N/A   Mostly Cloudy
1:35 PM 66.2 °F - 53.6 °F 64% 29.78 in 10.0 mi SE 15.0 mph 18.4 mph N/A   Partly Cloudy
1:55 PM 69.8 °F - 55.4 °F 60% 29.78 in 10.0 mi SE 15.0 mph 20.7 mph N/A   Partly Cloudy
2:15 PM 69.8 °F - 48.2 °F 46% 29.77 in 10.0 mi SSE 19.6 mph 29.9 mph N/A   Scattered Clouds
2:35 PM 73.4 °F - 50.0 °F 44% 29.77 in 10.0 mi South 19.6 mph 31.1 mph N/A   Scattered Clouds
2:55 PM 73.4 °F - 48.2 °F 41% 29.76 in 10.0 mi SSE 13.8 mph 27.6 mph N/A   Clear
3:15 PM 73.4 °F - 50.0 °F 44% 29.75 in 10.0 mi SE 17.3 mph 28.8 mph N/A   Clear
3:35 PM 73.4 °F - 48.2 °F 41% 29.74 in 10.0 mi South 15.0 mph 23.0 mph N/A   Partly Cloudy
3:55 PM 73.4 °F - 46.4 °F 38% 29.74 in 10.0 mi South 11.5 mph 21.9 mph N/A   Mostly Cloudy
4:15 PM 73.4 °F - 46.4 °F 38% 29.72 in 10.0 mi SSE 9.2 mph 16.1 mph N/A   Overcast
4:35 PM 71.6 °F - 46.4 °F 41% 29.72 in 9.0 mi SSE 8.1 mph 20.7 mph N/A Thunderstorm Overcast
4:55 PM 64.4 °F - 48.2 °F 56% 29.78 in 9.0 mi WSW 16.1 mph 24.2 mph 0.14 in Thunderstorm Thunderstorm
5:15 PM 60.8 °F - 51.8 °F 72% 29.75 in 10.0 mi SE 11.5 mph - 0.11 in Thunderstorm Thunderstorm
5:35 PM 62.6 °F - 53.6 °F 72% 29.74 in 10.0 mi ESE 12.7 mph - 0.11 in   Partly Cloudy
5:55 PM 64.4 °F - 51.8 °F 64% 29.72 in 10.0 mi ESE 9.2 mph - 0.11 in Thunderstorm Thunderstorm
6:15 PM 64.4 °F - 51.8 °F 64% 29.74 in 10.0 mi East 3.5 mph - 0.01 in   Overcast
6:35 PM 62.6 °F - 53.6 °F 72% 29.74 in 10.0 mi ENE 10.4 mph 17.3 mph 0.01 in   Overcast
6:55 PM 62.6 °F - 53.6 °F 72% 29.73 in 10.0 mi East 17.3 mph - 0.01 in   Scattered Clouds
7:15 PM 60.8 °F - 53.6 °F 77% 29.75 in 10.0 mi NNE 9.2 mph - N/A Thunderstorm Mostly Cloudy
7:35 PM 60.8 °F - 51.8 °F 72% 29.76 in 10.0 mi NNE 15.0 mph 20.7 mph N/A   Mostly Cloudy
7:55 PM 60.8 °F - 51.8 °F 72% 29.74 in 10.0 mi East 18.4 mph 26.5 mph N/A   Mostly Cloudy
8:15 PM 60.8 °F - 51.8 °F 72% 29.75 in 10.0 mi East 17.3 mph - N/A   Partly Cloudy
8:35 PM 59.0 °F - 50.0 °F 72% 29.75 in 10.0 mi East 16.1 mph - N/A   Clear
8:55 PM 57.2 °F - 50.0 °F 77% 29.75 in 10.0 mi ESE 17.3 mph - N/A   Clear
9:15 PM 57.2 °F - 50.0 °F 77% 29.76 in 10.0 mi ESE 13.8 mph - N/A   Clear
9:35 PM 57.2 °F - 50.0 °F 77% 29.77 in 10.0 mi ESE 13.8 mph - N/A   Clear
9:55 PM 57.2 °F - 50.0 °F 77% 29.78 in 10.0 mi East 11.5 mph - N/A   Clear
10:15 PM 57.2 °F - 50.0 °F 77% 29.80 in 10.0 mi NNE 4.6 mph - N/A   Clear
10:35 PM 55.4 °F - 48.2 °F 77% 29.80 in 10.0 mi East 6.9 mph - N/A   Clear
10:55 PM 53.6 °F - 48.2 °F 82% 29.80 in 10.0 mi ENE 5.8 mph - N/A   Clear
11:15 PM 51.8 °F - 48.2 °F 88% 29.80 in 10.0 mi Calm Calm - N/A   Clear
11:35 PM 53.6 °F - 48.2 °F 82% 29.80 in 10.0 mi SE 3.5 mph - N/A   Clear
11:55 PM 51.8 °F - 46.4 °F 82% 29.80 in 10.0 mi Calm Calm - N/A   Clear